This is the latest recevied weather packets stored in our database for station/object W2SRH. If no packets are shown the sender has not sent any weather packets the latest 10 day(s).
| Time | Temp. | Humidity | Pressure | Rain* | Wind** | Luminosity | Snow |
|---|---|---|---|---|---|---|---|
| 1777843147 | 15.56° C | 25% | 1003.2 hPa | 0 mm | 3.58 m/s, 278° | - | - |
| 1777842546 | 16.11° C | 25% | 1003.2 hPa | 0 mm | 2.68 m/s, 335° | - | - |
| 1777841945 | 15.56° C | 26% | 1003.3 hPa | 0 mm | 2.24 m/s, 327° | - | - |
| 1777841345 | 15° C | 26% | 1003.4 hPa | 0 mm | 4.47 m/s, 302° | - | - |
| 1777840745 | 14.44° C | 26% | 1003.5 hPa | 0 mm | 3.13 m/s, 310° | - | - |
| 1777840145 | 15° C | 26% | 1003.4 hPa | 0 mm | 2.68 m/s, 322° | - | - |
| 1777839547 | 15° C | 25% | 1003.5 hPa | 0 mm | 5.36 m/s, 300° | - | - |
| 1777838946 | 15.56° C | 26% | 1003.4 hPa | 0 mm | 2.24 m/s, 317° | - | - |
| 1777838346 | 15° C | 26% | 1003.5 hPa | 0 mm | 3.13 m/s, 316° | - | - |
| 1777837744 | 15° C | 27% | 1003.6 hPa | 0 mm | 2.68 m/s, 300° | - | - |
| 1777837145 | 14.44° C | 27% | 1003.7 hPa | 0 mm | 3.13 m/s, 304° | - | - |
| 1777836544 | 14.44° C | 27% | 1003.8 hPa | 0 mm | 3.13 m/s, 286° | - | - |
| 1777836525 | 13.89° C | 28% | 1004.1 hPa | 0 mm | 2.68 m/s, 298° | - | - |
| 1777835945 | 14.44° C | 28% | 1004 hPa | 0 mm | 4.02 m/s, 310° | - | - |
| 1777835344 | 13.89° C | 28% | 1004 hPa | 0 mm | 3.58 m/s, 307° | - | - |
| 1777834744 | 13.89° C | 28% | 1004.1 hPa | 0 mm | 2.68 m/s, 298° | - | - |
| 1777834612 | 13.89° C | 29% | 1004.2 hPa | 0 mm | 2.68 m/s, 291° | - | - |
| 1777834145 | 13.89° C | 29% | 1004.2 hPa | 0 mm | 2.68 m/s, 291° | - | - |
| 1777833544 | 13.89° C | 28% | 1004.3 hPa | 0 mm | 2.68 m/s, 312° | - | - |
| 1777832943 | 13.33° C | 28% | 1004.3 hPa | 0 mm | 4.02 m/s, 301° | - | - |
| 1777832344 | 13.33° C | 29% | 1004.2 hPa | 0 mm | 2.24 m/s, 274° | - | - |
| 1777831744 | 12.22° C | 30% | 1004.3 hPa | 0 mm | 3.13 m/s, 293° | - | - |
| 1777831144 | 12.78° C | 30% | 1004.6 hPa | 0 mm | 2.24 m/s, 283° | - | - |
| 1777830544 | 12.78° C | 32% | 1004.6 hPa | 0 mm | 2.68 m/s, 305° | - | - |
| 1777829944 | 12.78° C | 31% | 1004.6 hPa | 0 mm | 3.13 m/s, 309° | - | - |
* Rain latest hour (hover to see other rain measurements)
** Current wind speed in m/s (hover to see current wind gust speed)